Hourly Weather Cotiujenii Mari

Today, 1 August, Sunday

Time Temperature Precipitation Wind Pressure Humidity
00:00 +22°C° 0 mm 3 mps 737 mmHg 71%
01:00 +23°C° 0 mm 2 mps 737 mmHg 74%
02:00 +21°C° 0 mm 2 mps 737 mmHg 77%
03:00 +21°C° 0 mm 2 mps 737 mmHg 80%
04:00 +20°C° 0 mm 2 mps 737 mmHg 82%
05:00 +20°C° 0 mm 2 mps 737 mmHg 85%
06:00 +21°C° 0 mm 2 mps 737 mmHg 78%
07:00 +24°C° 0 mm 2 mps 737 mmHg 72%
08:00 +26°C° 0 mm 3 mps 738 mmHg 63%
09:00 +27°C° 0 mm 3 mps 738 mmHg 58%
10:00 +29°C° 0 mm 3 mps 738 mmHg 54%
11:00 +30°C° 0 mm 3 mps 738 mmHg 50%
12:00 +31°C° 0 mm 3 mps 738 mmHg 47%
13:00 +33°C° 0 mm 3 mps 738 mmHg 44%
14:00 +33°C° 0 mm 3 mps 738 mmHg 42%
15:00 +33°C° 0 mm 3 mps 738 mmHg 40%
16:00 +32°C° 0 mm 2 mps 738 mmHg 39%
17:00 +32°C° 0 mm 2 mps 737 mmHg 38%
18:00 +30°C° 0 mm 2 mps 737 mmHg 42%
19:00 +29°C° 0 mm 2 mps 737 mmHg 47%
20:00 +27°C° 0 mm 1 mps 737 mmHg 52%
21:00 +26°C° 0 mm 2 mps 737 mmHg 53%
22:00 +26°C° 0 mm 2 mps 737 mmHg 54%
23:00 +25°C° 0 mm 2 mps 737 mmHg 56%

Tomorrow, 2 August, Monday

Time Temperature Precipitation Wind Pressure Humidity
00:00 +25°C° 0.1 mm 2 mps 737 mmHg 59%
01:00 +24°C° 0.1 mm 2 mps 736 mmHg 62%
02:00 +24°C° 0.1 mm 2 mps 736 mmHg 65%
03:00 +24°C° 0 mm 3 mps 736 mmHg 65%
04:00 +25°C° 0 mm 4 mps 736 mmHg 64%
05:00 +25°C° 0 mm 4 mps 735 mmHg 64%
06:00 +26°C° 0 mm 4 mps 735 mmHg 61%
07:00 +27°C° 0 mm 5 mps 735 mmHg 58%
08:00 +28°C° 0 mm 5 mps 735 mmHg 55%
09:00 +29°C° 0 mm 5 mps 735 mmHg 53%
10:00 +30°C° 0 mm 4 mps 735 mmHg 51%
11:00 +30°C° 0 mm 4 mps 736 mmHg 49%
12:00 +33°C° 0 mm 4 mps 735 mmHg 45%
13:00 +34°C° 0 mm 3 mps 735 mmHg 42%
14:00 +35°C° 0 mm 2 mps 735 mmHg 38%
15:00 +31°C° 2.5 mm 3 mps 735 mmHg 47%
16:00 +29°C° 2.5 mm 3 mps 735 mmHg 56%
17:00 +26°C° 2.5 mm 3 mps 736 mmHg 65%
18:00 +25°C° 0 mm 3 mps 736 mmHg 68%
19:00 +24°C° 0 mm 3 mps 737 mmHg 71%
20:00 +24°C° 0 mm 3 mps 738 mmHg 73%
21:00 +22°C° 0 mm 3 mps 738 mmHg 75%
22:00 +21°C° 0 mm 3 mps 739 mmHg 77%
23:00 +20°C° 0 mm 2 mps 739 mmHg 79%

Day after tomorrow, 3 August, Tuesday

Time Temperature Precipitation Wind Pressure Humidity
00:00 +19°C° 0 mm 2 mps 740 mmHg 80%
01:00 +19°C° 0 mm 3 mps 740 mmHg 82%
02:00 +18°C° 0 mm 3 mps 740 mmHg 83%
03:00 +17°C° 0 mm 2 mps 741 mmHg 84%
04:00 +16°C° 0 mm 2 mps 741 mmHg 86%
05:00 +16°C° 0 mm 2 mps 741 mmHg 87%
06:00 +17°C° 0 mm 3 mps 741 mmHg 80%
07:00 +19°C° 0 mm 3 mps 742 mmHg 73%
08:00 +20°C° 0 mm 3 mps 742 mmHg 66%
09:00 +22°C° 0 mm 3 mps 742 mmHg 59%
10:00 +24°C° 0 mm 3 mps 742 mmHg 53%
11:00 +25°C° 0 mm 3 mps 742 mmHg 47%
12:00 +26°C° 0 mm 3 mps 742 mmHg 44%
13:00 +27°C° 0 mm 3 mps 742 mmHg 42%
14:00 +28°C° 0 mm 2 mps 742 mmHg 40%
15:00 +28°C° 0 mm 2 mps 742 mmHg 40%
16:00 +28°C° 0 mm 2 mps 742 mmHg 40%
17:00 +28°C° 0 mm 2 mps 742 mmHg 40%
18:00 +26°C° 0 mm 2 mps 742 mmHg 45%
19:00 +24°C° 0 mm 1 mps 742 mmHg 50%
20:00 +23°C° 0 mm 1 mps 742 mmHg 55%
21:00 +22°C° 0 mm 1 mps 742 mmHg 57%
22:00 +21°C° 0 mm 1 mps 742 mmHg 59%
23:00 +21°C° 0 mm 1 mps 743 mmHg 62%

4 August, Wednesday

Time Temperature Precipitation Wind Pressure Humidity
00:00 +20°C° 0 mm 1 mps 742 mmHg 63%
01:00 +20°C° 0 mm 1 mps 742 mmHg 64%
02:00 +20°C° 0 mm 1 mps 742 mmHg 65%
03:00 +20°C° 0 mm 1 mps 742 mmHg 65%
04:00 +20°C° 0 mm 1 mps 742 mmHg 65%
05:00 +20°C° 0 mm 1 mps 742 mmHg 66%
06:00 +19°C° 0 mm 2 mps 743 mmHg 66%
07:00 +20°C° 0 mm 3 mps 743 mmHg 65%
08:00 +21°C° 0 mm 5 mps 743 mmHg 65%
09:00 +22°C° 0 mm 5 mps 743 mmHg 63%
10:00 +23°C° 0 mm 5 mps 743 mmHg 61%
11:00 +25°C° 0 mm 5 mps 743 mmHg 59%
12:00 +26°C° 0 mm 5 mps 743 mmHg 56%
13:00 +26°C° 0 mm 5 mps 743 mmHg 53%
14:00 +27°C° 0 mm 5 mps 742 mmHg 50%
15:00 +27°C° 0 mm 5 mps 742 mmHg 50%
16:00 +27°C° 0 mm 5 mps 742 mmHg 51%
17:00 +27°C° 0 mm 4 mps 742 mmHg 51%
18:00 +25°C° 0 mm 4 mps 742 mmHg 55%
19:00 +23°C° 0 mm 4 mps 742 mmHg 59%
20:00 +21°C° 0 mm 3 mps 742 mmHg 63%
21:00 +20°C° 0 mm 3 mps 742 mmHg 65%
22:00 +20°C° 0 mm 2 mps 742 mmHg 67%
23:00 +19°C° 0 mm 2 mps 742 mmHg 70%

5 August, Thursday

Time Temperature Precipitation Wind Pressure Humidity
00:00 +19°C° 0 mm 2 mps 742 mmHg 70%
01:00 +19°C° 0 mm 2 mps 742 mmHg 70%
02:00 +20°C° 0 mm 1 mps 742 mmHg 71%
03:00 +18°C° 0 mm 2 mps 741 mmHg 72%
04:00 +18°C° 0 mm 2 mps 741 mmHg 73%
05:00 +18°C° 0 mm 2 mps 741 mmHg 74%
06:00 +20°C° 0 mm 3 mps 741 mmHg 67%
07:00 +21°C° 0 mm 4 mps 741 mmHg 61%
08:00 +23°C° 0 mm 4 mps 741 mmHg 54%
09:00 +26°C° 0 mm 5 mps 741 mmHg 50%
10:00 +28°C° 0 mm 5 mps 741 mmHg 46%
11:00 +30°C° 0 mm 5 mps 740 mmHg 42%
12:00 +32°C° 0 mm 5 mps 740 mmHg 40%
13:00 +33°C° 0 mm 5 mps 740 mmHg 38%
14:00 +33°C° 0 mm 5 mps 740 mmHg 36%
15:00 +33°C° 0 mm 5 mps 739 mmHg 36%
16:00 +33°C° 0 mm 5 mps 739 mmHg 37%
17:00 +33°C° 0 mm 4 mps 738 mmHg 37%
18:00 +30°C° 0 mm 4 mps 738 mmHg 42%
19:00 +28°C° 0 mm 4 mps 737 mmHg 47%
20:00 +26°C° 0 mm 3 mps 737 mmHg 51%
21:00 +25°C° 0 mm 3 mps 737 mmHg 53%
22:00 +24°C° 0 mm 3 mps 737 mmHg 54%
23:00 +24°C° 0 mm 3 mps 737 mmHg 56%

6 August, Friday

Time Temperature Precipitation Wind Pressure Humidity
00:00 +22°C° 0 mm 3 mps 737 mmHg 59%
01:00 +21°C° 0 mm 3 mps 737 mmHg 63%
02:00 +21°C° 0 mm 3 mps 737 mmHg 66%
03:00 +21°C° 0 mm 3 mps 736 mmHg 70%
04:00 +20°C° 0 mm 3 mps 735 mmHg 74%
05:00 +20°C° 0 mm 3 mps 735 mmHg 78%
06:00 +22°C° 0 mm 4 mps 735 mmHg 73%
07:00 +23°C° 0 mm 4 mps 735 mmHg 68%
08:00 +26°C° 0 mm 5 mps 735 mmHg 63%
09:00 +27°C° 0 mm 5 mps 735 mmHg 58%
10:00 +29°C° 0 mm 5 mps 735 mmHg 52%
11:00 +30°C° 0 mm 5 mps 735 mmHg 46%
12:00 +32°C° 0 mm 5 mps 735 mmHg 44%
13:00 +32°C° 0 mm 4 mps 735 mmHg 41%
14:00 +32°C° 0 mm 4 mps 734 mmHg 39%
15:00 +32°C° 0 mm 4 mps 734 mmHg 40%
16:00 +32°C° 0 mm 4 mps 734 mmHg 40%
17:00 +32°C° 0 mm 4 mps 733 mmHg 41%
18:00 +28°C° 0.3 mm 4 mps 734 mmHg 53%
19:00 +25°C° 0.3 mm 4 mps 734 mmHg 65%
20:00 +21°C° 0.3 mm 3 mps 734 mmHg 77%
21:00 +20°C° 0.7 mm 3 mps 734 mmHg 82%
22:00 +20°C° 0.7 mm 2 mps 734 mmHg 87%
23:00 +20°C° 0.7 mm 1 mps 735 mmHg 91%
Show more

We Need Your Consent

Meteoprog and our Service Providers may store and access personal data such as cookies, device identifiers or other similar technologies on your device and process such data to personalise content and ads, as well as provide social media features and to analyse the traffic.

  • Store and/or access information on your device

    Cookies, device identifiers or other information can be stored or accessed on your device for the purposes indicated above.

  • Personalised ads and content, ad and content measurement, audience insights, and products development

    Ads and content can be personalised based on a profile. More data can be added to better personalise ads and content. Ad and content performance can be measured. Insights about the audience who saw the ads and content can be derived. Such data can be used to develop or improve user’s experience, systems and software.

By clicking ‘I Agree’ you will allow the use of indicated cookies, device identifiers, web beacons or other similar technologies. Your settings can be changed in the browser on your device.

For certain purposes, legitimate interests may be relied on, rather than consent. You can read more about this in our Privacy and Cookie Policy.